| time (UTC) | temp F | wind direction | speed MPH | gust MPH | rain 1hr in | rain 24hr in | rain mn in | humidity % | barometer mb |
| 20260505094559 | 45 | 150 | 0.0 | 0.0 | 0.00 | 0.00 | 0.00 | 81 | 1011.1 |
| 20260505093103 | 45 | 150 | 0.0 | 0.0 | 0.00 | 0.00 | 0.00 | 81 | 1010.9 |
| 20260505091536 | 46 | 150 | 0.0 | 0.0 | 0.00 | 0.00 | 0.00 | 79 | 1010.6 |
| 20260505090036 | 47 | 150 | 0.0 | 0.0 | 0.00 | 0.00 | 0.00 | 77 | 1010.4 |
| 20260505084517 | 48 | 150 | 0.0 | 0.0 | 0.00 | 0.00 | 0.00 | 76 | 1010.3 |
| 20260505083014 | 49 | 150 | 0.0 | 0.0 | 0.00 | 0.00 | 0.00 | 75 | 1010.0 |
| 20260505081609 | 51 | 150 | 0.0 | 0.0 | 0.00 | 0.00 | 0.00 | 74 | 1009.8 |
| 20260505080100 | 52 | 150 | 0.0 | 0.0 | 0.00 | 0.00 | 0.00 | 73 | 1009.5 |
| 20260505074536 | 53 | 150 | 0.0 | 0.0 | 0.00 | 0.00 | 0.00 | 71 | 1009.2 |
| 20260505073038 | 55 | 151 | 0.0 | 0.0 | 0.00 | 0.00 | 0.00 | 71 | 1008.8 |
| 20260505071533 | 56 | 150 | 0.0 | 0.0 | 0.00 | 0.00 | 0.00 | 69 | 1008.4 |
| 20260505070032 | 57 | 151 | 0.0 | 0.0 | 0.00 | 0.00 | 0.00 | 68 | 1008.2 |
| 20260505064531 | 57 | 151 | 0.0 | 0.0 | 0.00 | 0.00 | 0.00 | 68 | 1008.0 |
| 20260505063035 | 58 | 151 | 0.0 | 1.0 | 0.00 | 0.00 | 0.00 | 67 | 1007.8 |
| 20260505061537 | 59 | 142 | 0.0 | 0.0 | 0.00 | 0.00 | 0.00 | 66 | 1007.7 |
| 20260505060031 | 60 | 142 | 0.0 | 0.0 | 0.00 | 0.00 | 0.00 | 64 | 1007.4 |
| 20260505054513 | 60 | 142 | 0.0 | 0.0 | 0.00 | 0.00 | 0.00 | 62 | 1007.2 |
| 20260505053027 | 61 | 156 | 0.0 | 0.0 | 0.00 | 0.00 | 0.00 | 61 | 1007.1 |
| 20260505051554 | 62 | 155 | 0.0 | 0.0 | 0.00 | 0.00 | 0.00 | 60 | 1006.9 |
| 20260505041520 | 64 | 132 | 0.0 | 0.0 | 0.00 | 0.00 | 0.00 | 56 | 1006.4 |
| 20260505040015 | 64 | 153 | 0.0 | 0.0 | 0.00 | 0.00 | 0.00 | 55 | 1006.4 |
| 20260505034557 | 64 | 163 | 1.0 | 11.0 | 0.00 | 0.00 | 0.00 | 54 | 1006.3 |
| 20260505033054 | 64 | 146 | 0.0 | 0.0 | 0.00 | 0.00 | 0.00 | 57 | 1006.4 |
| 20260505031544 | 64 | 158 | 0.0 | 8.0 | 0.00 | 0.00 | 0.00 | 57 | 1006.5 |
| 20260505030038 | 64 | 160 | 0.0 | 6.0 | 0.00 | 0.00 | 0.00 | 58 | 1006.6 |
| 20260505024537 | 64 | 178 | 0.0 | 12.0 | 0.00 | 0.00 | 0.00 | 55 | 1006.5 |
| 20260505023036 | 64 | 156 | 0.0 | 6.0 | 0.00 | 0.00 | 0.00 | 57 | 1006.7 |
| 20260505021535 | 63 | 171 | 0.0 | 7.0 | 0.00 | 0.00 | 0.00 | 57 | 1007.0 |
| 20260505020036 | 63 | 182 | 0.0 | 8.0 | 0.00 | 0.01 | 0.00 | 58 | 1007.3 |
| 20260505014524 | 63 | 128 | 0.0 | 0.0 | 0.00 | 0.01 | 0.00 | 60 | 1007.5 |
| 20260505013027 | 62 | 138 | 0.0 | 7.0 | 0.00 | 0.01 | 0.00 | 58 | 1007.6 |
| 20260505011525 | 61 | 191 | 0.0 | 5.0 | 0.00 | 0.01 | 0.00 | 61 | 1007.7 |
| 20260505010117 | 60 | 188 | 2.0 | 9.0 | 0.00 | 0.01 | 0.00 | 63 | 1007.7 |
| 20260505004553 | 60 | 162 | 0.0 | 9.0 | 0.00 | 0.02 | 0.00 | 65 | 1007.8 |
| 20260505003032 | 59 | 140 | 0.0 | 2.0 | 0.00 | 0.02 | 0.00 | 70 | 1007.7 |
| 20260505001525 | 58 | 160 | 0.0 | 7.0 | 0.00 | 0.02 | 0.00 | 73 | 1007.8 |
| 20260505000004 | 56 | 151 | 0.0 | 0.0 | 0.00 | 0.06 | 0.00 | 82 | 1007.6 |
| 20260504234601 | 54 | 124 | 0.0 | 8.0 | 0.00 | 0.06 | 0.00 | 88 | 1007.8 |
| 20260504233037 | 52 | 158 | 0.0 | 8.0 | 0.00 | 0.06 | 0.00 | 94 | 1007.6 |
| 20260504231532 | 51 | 142 | 0.0 | 0.0 | 0.00 | 0.06 | 0.00 | 96 | 1007.6 |
| 20260504230012 | 49 | 153 | 0.0 | 0.0 | 0.00 | 0.06 | 0.00 | 96 | 1008.1 |
| 20260504224504 | 45 | 154 | 0.0 | 0.0 | 0.00 | 0.06 | 0.00 | 96 | 1008.4 |
| 20260504223057 | 43 | 154 | 0.0 | 0.0 | 0.00 | 0.06 | 0.00 | 96 | 1008.7 |
| 20260504221554 | 39 | 154 | 0.0 | 0.0 | 0.00 | 0.06 | 0.00 | 95 | 1008.3 |
| 20260504220017 | 37 | 154 | 0.0 | 0.0 | 0.00 | 0.06 | 0.00 | 94 | 1007.9 |
| 20260504214513 | 36 | 154 | 0.0 | 0.0 | 0.00 | 0.06 | 0.00 | 92 | 1007.5 |
| 20260504213104 | 0 | 0.0 | 0.0 | 0.00 | 0.06 | 0.00 | 1007.3 | ||
| 20260504211550 | 0 | 0.0 | 0.0 | 0.00 | 0.06 | 0.00 | 1007.2 | ||
| 20260504210026 | 0 | 0.0 | 0.0 | 0.00 | 0.06 | 0.00 | 1006.6 | ||
| 20260504204527 | 0 | 0.0 | 0.0 | 0.00 | 0.06 | 0.00 | 1006.4 | ||
| 20260504203100 | 0 | 0.0 | 0.0 | 0.00 | 0.06 | 0.00 | 1006.1 | ||
| 20260504201555 | 0 | 0.0 | 0.0 | 0.00 | 0.06 | 0.00 | 1005.8 | ||
| 20260504200034 | 0 | 0.0 | 0.0 | 0.00 | 0.06 | 0.00 | 1005.4 | ||
| 20260504194538 | 0 | 0.0 | 0.0 | 0.00 | 0.06 | 0.00 | 1005.4 | ||
| 20260504193007 | 0 | 0.0 | 0.0 | 0.00 | 0.06 | 0.00 | 1005.1 | ||
| 20260504191503 | 0 | 0.0 | 0.0 | 0.00 | 0.06 | 0.00 | 1005.3 | ||
| 20260504190043 | 0 | 0.0 | 0.0 | 0.00 | 0.06 | 0.00 | 1005.3 | ||
| 20260504184542 | 37 | 154 | 0.0 | 0.0 | 0.00 | 0.06 | 0.00 | 91 | 1005.2 |
| 20260504183020 | 37 | 154 | 0.0 | 0.0 | 0.00 | 0.06 | 0.00 | 91 | 1004.9 |
| 20260504181521 | 37 | 154 | 0.0 | 0.0 | 0.00 | 0.06 | 0.00 | 91 | 1004.9 |
| 20260504180103 | 38 | 154 | 0.0 | 0.0 | 0.00 | 0.06 | 0.00 | 91 | 1004.8 |
| 20260504174558 | 38 | 154 | 0.0 | 0.0 | 0.00 | 0.06 | 0.00 | 91 | 1004.7 |
| 20260504173037 | 38 | 154 | 0.0 | 0.0 | 0.00 | 0.06 | 0.00 | 91 | 1004.8 |
| 20260504171537 | 39 | 154 | 0.0 | 0.0 | 0.00 | 0.06 | 0.00 | 90 | 1004.7 |